TimeEST,TemperatureF,Dew PointF,Humidity,Sea Level PressureIn,VisibilityMPH,Wind Direction,Wind SpeedMPH,Gust SpeedMPH,PrecipitationIn,Events,Conditions,WindDirDegrees,DateUTC
1:44 AM,14.0,7.0,74,30.05,10.0,WNW,8.1,18.4,N/A,,Overcast,300,2014-02-06 06:44:00
1:54 AM,12.9,7.0,77,30.09,10.0,Variable,4.6,-,N/A,,Overcast,0,2014-02-06 06:54:00
2:54 AM,12.0,5.0,73,30.12,9.0,Variable,3.5,-,N/A,,Overcast,0,2014-02-06 07:54:00
3:54 AM,9.0,3.9,80,30.16,10.0,Calm,Calm,-,N/A,,Scattered Clouds,0,2014-02-06 08:54:00
4:54 AM,9.0,1.9,73,30.19,10.0,NW,4.6,-,N/A,,Clear,310,2014-02-06 09:54:00
5:54 AM,6.1,1.0,80,30.22,10.0,North,-9999.0,-,N/A,,Clear,0,2014-02-06 10:54:00
6:54 AM,6.1,-0.0,76,30.25,10.0,Calm,Calm,-,N/A,,Clear,0,2014-02-06 11:54:00
7:54 AM,3.9,-0.0,84,30.27,10.0,Variable,3.5,-,N/A,,Clear,0,2014-02-06 12:54:00
8:54 AM,10.0,1.9,70,30.28,10.0,NE,3.5,-,N/A,,Clear,50,2014-02-06 13:54:00
9:54 AM,14.0,3.9,64,30.28,10.0,Calm,Calm,-,N/A,,Clear,0,2014-02-06 14:54:00
10:54 AM,17.1,3.0,54,30.28,10.0,NW,9.2,-,N/A,,Clear,320,2014-02-06 15:54:00
11:54 AM,19.0,3.0,50,30.26,10.0,NW,5.8,-,N/A,,Clear,320,2014-02-06 16:54:00
12:54 PM,19.9,5.0,52,30.22,10.0,Variable,3.5,-,N/A,,Clear,0,2014-02-06 17:54:00
1:54 PM,23.0,5.0,46,30.21,10.0,Variable,4.6,-,N/A,,Clear,0,2014-02-06 18:54:00
2:54 PM,21.9,6.1,51,30.22,10.0,ENE,3.5,-,N/A,,Clear,70,2014-02-06 19:54:00
3:54 PM,23.0,5.0,46,30.22,10.0,NW,4.6,-,N/A,,Clear,320,2014-02-06 20:54:00
4:54 PM,19.9,5.0,52,30.22,10.0,East,3.5,-,N/A,,Clear,90,2014-02-06 21:54:00
5:54 PM,14.0,9.0,80,30.23,10.0,Calm,Calm,-,N/A,,Clear,0,2014-02-06 22:54:00
6:54 PM,10.0,7.0,87,30.24,10.0,Calm,Calm,-,N/A,,Clear,0,2014-02-06 23:54:00
7:54 PM,8.1,5.0,87,30.23,10.0,Calm,Calm,-,N/A,,Mostly Cloudy,0,2014-02-07 00:54:00
8:54 PM,5.0,3.0,92,30.22,10.0,Calm,Calm,-,N/A,,Scattered Clouds,0,2014-02-07 01:54:00
9:54 PM,3.0,-0.0,87,30.22,8.0,Calm,Calm,-,N/A,,Clear,0,2014-02-07 02:54:00
10:54 PM,1.0,-2.9,83,30.21,7.0,Calm,Calm,-,N/A,,Clear,0,2014-02-07 03:54:00
11:54 PM,-0.9,-4.0,87,30.20,8.0,Calm,Calm,-,N/A,,Clear,0,2014-02-07 04:54:00